• In Hungary
  • List of Countries
  • For 7 days
  • Water Temperature
  • Satellite Maps
  • Weather Map
  • News
  • Weather Widgets
  • user-avatar
    Login

    Hourly Weather Nivki

    Today, 20 October, Saturday

    Time Temperature Precipitation Wind Pressure Humidity
    00:00 +6°C° 0 mm 1 mps 748 mmHg 88%
    01:00 +5°C° 0 mm 1 mps 748 mmHg 89%
    02:00 +5°C° 0 mm 1 mps 748 mmHg 91%
    03:00 +5°C° 0 mm 1 mps 749 mmHg 92%
    04:00 +4°C° 0 mm 1 mps 749 mmHg 93%
    05:00 +4°C° 0 mm 1 mps 749 mmHg 95%
    06:00 +4°C° 0 mm 1 mps 749 mmHg 94%
    07:00 +4°C° 0 mm 2 mps 749 mmHg 93%
    08:00 +4°C° 0 mm 2 mps 749 mmHg 91%
    09:00 +5°C° 0 mm 2 mps 749 mmHg 86%
    10:00 +6°C° 0 mm 2 mps 750 mmHg 81%
    11:00 +8°C° 0 mm 2 mps 750 mmHg 76%
    12:00 +8°C° 0 mm 2 mps 750 mmHg 73%
    13:00 +9°C° 0 mm 1 mps 749 mmHg 71%
    14:00 +10°C° 0 mm 1 mps 749 mmHg 68%
    15:00 +9°C° 0 mm 1 mps 749 mmHg 73%
    16:00 +8°C° 0 mm 1 mps 749 mmHg 78%
    17:00 +7°C° 0 mm 1 mps 749 mmHg 84%
    18:00 +6°C° 0 mm 1 mps 750 mmHg 86%
    19:00 +5°C° 0 mm 0 mps 750 mmHg 88%
    20:00 +4°C° 0 mm 0 mps 750 mmHg 90%
    21:00 +4°C° 0 mm 0 mps 750 mmHg 90%
    22:00 +4°C° 0 mm 0 mps 750 mmHg 91%
    23:00 +3°C° 0 mm 0 mps 750 mmHg 92%

    Tomorrow, 21 October, Sunday

    Time Temperature Precipitation Wind Pressure Humidity
    00:00 +3°C° 0 mm 0 mps 751 mmHg 92%
    01:00 +3°C° 0 mm 0 mps 751 mmHg 93%
    02:00 +3°C° 0 mm 0 mps 751 mmHg 93%
    03:00 +3°C° 0 mm 0 mps 751 mmHg 94%
    04:00 +3°C° 0 mm 0 mps 751 mmHg 94%
    05:00 +3°C° 0 mm 1 mps 751 mmHg 94%
    06:00 +4°C° 0 mm 1 mps 751 mmHg 94%
    07:00 +4°C° 0 mm 1 mps 752 mmHg 93%
    08:00 +4°C° 0 mm 1 mps 752 mmHg 92%
    09:00 +6°C° 0 mm 1 mps 752 mmHg 86%
    10:00 +7°C° 0 mm 1 mps 752 mmHg 80%
    11:00 +8°C° 0 mm 1 mps 753 mmHg 74%
    12:00 +9°C° 0 mm 1 mps 753 mmHg 72%
    13:00 +9°C° 0 mm 1 mps 752 mmHg 70%
    14:00 +9°C° 0 mm 1 mps 752 mmHg 68%
    15:00 +8°C° 0 mm 1 mps 752 mmHg 74%
    16:00 +7°C° 0 mm 1 mps 752 mmHg 80%
    17:00 +6°C° 0 mm 1 mps 752 mmHg 85%
    18:00 +6°C° 0 mm 1 mps 752 mmHg 87%
    19:00 +5°C° 0 mm 1 mps 752 mmHg 88%
    20:00 +5°C° 0 mm 1 mps 753 mmHg 90%
    21:00 +5°C° 0 mm 1 mps 752 mmHg 90%
    22:00 +4°C° 0 mm 2 mps 752 mmHg 90%
    23:00 +3°C° 0 mm 2 mps 752 mmHg 91%

    Day after tomorrow, 22 October, Monday

    Time Temperature Precipitation Wind Pressure Humidity
    00:00 +3°C° 0 mm 2 mps 752 mmHg 90%
    01:00 +3°C° 0 mm 2 mps 752 mmHg 90%
    02:00 +3°C° 0 mm 2 mps 751 mmHg 89%
    03:00 +2°C° 0 mm 3 mps 751 mmHg 88%
    04:00 +2°C° 0 mm 3 mps 750 mmHg 88%
    05:00 +2°C° 0 mm 3 mps 750 mmHg 87%
    06:00 +2°C° 0 mm 3 mps 750 mmHg 85%
    07:00 +1°C° 0 mm 4 mps 749 mmHg 84%
    08:00 +3°C° 0 mm 4 mps 749 mmHg 82%
    09:00 +4°C° 0 mm 4 mps 749 mmHg 78%
    10:00 +5°C° 0 mm 5 mps 748 mmHg 73%
    11:00 +7°C° 0 mm 5 mps 748 mmHg 69%
    12:00 +7°C° 0 mm 5 mps 747 mmHg 68%
    13:00 +8°C° 0 mm 5 mps 746 mmHg 66%
    14:00 +8°C° 0 mm 5 mps 746 mmHg 65%
    15:00 +7°C° 0 mm 5 mps 745 mmHg 69%
    16:00 +7°C° 0 mm 4 mps 745 mmHg 72%
    17:00 +6°C° 0 mm 4 mps 744 mmHg 75%
    18:00 +6°C° 0.2 mm 4 mps 744 mmHg 77%
    19:00 +6°C° 0.2 mm 4 mps 744 mmHg 79%
    20:00 +6°C° 0.2 mm 4 mps 743 mmHg 81%
    21:00 +6°C° 0.6 mm 4 mps 743 mmHg 84%
    22:00 +7°C° 0.6 mm 3 mps 742 mmHg 87%
    23:00 +7°C° 0.6 mm 3 mps 742 mmHg 90%

    23 October, Tuesday

    Time Temperature Precipitation Wind Pressure Humidity
    00:00 +7°C° 0.7 mm 3 mps 742 mmHg 91%
    01:00 +7°C° 0.7 mm 3 mps 741 mmHg 92%
    02:00 +7°C° 0.7 mm 2 mps 741 mmHg 93%
    03:00 +6°C° 0.3 mm 2 mps 741 mmHg 93%
    04:00 +6°C° 0.3 mm 2 mps 741 mmHg 92%
    05:00 +6°C° 0.3 mm 2 mps 740 mmHg 92%
    06:00 +6°C° 0 mm 2 mps 740 mmHg 91%
    07:00 +5°C° 0 mm 2 mps 740 mmHg 90%
    08:00 +5°C° 0 mm 2 mps 740 mmHg 89%
    09:00 +5°C° 0 mm 2 mps 740 mmHg 86%
    10:00 +6°C° 0 mm 2 mps 739 mmHg 82%
    11:00 +6°C° 0 mm 2 mps 739 mmHg 78%
    12:00 +6°C° 0 mm 2 mps 739 mmHg 74%
    13:00 +7°C° 0 mm 2 mps 738 mmHg 69%
    14:00 +7°C° 0 mm 2 mps 737 mmHg 64%
    15:00 +6°C° 0 mm 2 mps 737 mmHg 69%
    16:00 +5°C° 0 mm 2 mps 736 mmHg 74%
    17:00 +4°C° 0 mm 2 mps 736 mmHg 78%
    18:00 +4°C° 0 mm 2 mps 735 mmHg 79%
    19:00 +3°C° 0 mm 2 mps 734 mmHg 79%
    20:00 +2°C° 0 mm 3 mps 734 mmHg 79%
    21:00 +2°C° 0 mm 3 mps 733 mmHg 79%
    22:00 +2°C° 0 mm 3 mps 732 mmHg 80%
    23:00 +1°C° 0 mm 4 mps 731 mmHg 80%

    24 October, Wednesday

    Time Temperature Precipitation Wind Pressure Humidity
    00:00 +1°C° 0 mm 4 mps 730 mmHg 80%
    01:00 +1°C° 0 mm 4 mps 728 mmHg 80%
    02:00 +1°C° 0 mm 5 mps 727 mmHg 80%
    03:00 +1°C° 0.2 mm 5 mps 726 mmHg 80%
    04:00 +1°C° 0.2 mm 5 mps 726 mmHg 79%
    05:00 +1°C° 0.2 mm 5 mps 725 mmHg 79%
    06:00 +1°C° 0.3 mm 5 mps 724 mmHg 79%
    07:00 +1°C° 0.3 mm 5 mps 724 mmHg 79%
    08:00 +2°C° 0.3 mm 5 mps 723 mmHg 80%
    09:00 +3°C° 0.3 mm 4 mps 723 mmHg 80%
    10:00 +3°C° 0.3 mm 4 mps 723 mmHg 79%
    11:00 +4°C° 0.3 mm 4 mps 723 mmHg 79%
    12:00 +4°C° 0.2 mm 4 mps 723 mmHg 80%
    13:00 +4°C° 0.2 mm 3 mps 723 mmHg 81%
    14:00 +4°C° 0.2 mm 3 mps 723 mmHg 81%
    15:00 +4°C° 0.2 mm 2 mps 723 mmHg 84%
    16:00 +4°C° 0.2 mm 2 mps 723 mmHg 86%
    17:00 +5°C° 0.2 mm 1 mps 723 mmHg 89%
    18:00 +5°C° 0.2 mm 1 mps 723 mmHg 90%
    19:00 +5°C° 0.2 mm 1 mps 724 mmHg 91%
    20:00 +5°C° 0.2 mm 1 mps 724 mmHg 92%
    21:00 +4°C° 0.1 mm 1 mps 724 mmHg 93%
    22:00 +4°C° 0.1 mm 1 mps 724 mmHg 94%
    23:00 +4°C° 0.1 mm 1 mps 723 mmHg 94%

    25 October, Thursday

    Time Temperature Precipitation Wind Pressure Humidity
    00:00 +3°C° 0.1 mm 2 mps 723 mmHg 94%
    01:00 +3°C° 0.1 mm 2 mps 723 mmHg 93%
    02:00 +2°C° 0.1 mm 3 mps 723 mmHg 93%
    03:00 +2°C° 0.2 mm 3 mps 724 mmHg 92%
    04:00 +1°C° 0.2 mm 4 mps 724 mmHg 90%
    05:00 +1°C° 0.2 mm 4 mps 724 mmHg 89%
    06:00 +1°C° 0.1 mm 4 mps 724 mmHg 88%
    07:00 +1°C° 0.1 mm 5 mps 724 mmHg 87%
    08:00 +1°C° 0.1 mm 5 mps 724 mmHg 86%
    09:00 +1°C° 0.2 mm 5 mps 724 mmHg 84%
    10:00 +2°C° 0.2 mm 5 mps 724 mmHg 82%
    11:00 +2°C° 0.2 mm 5 mps 725 mmHg 81%
    12:00 +2°C° 0.2 mm 6 mps 725 mmHg 78%
    13:00 +2°C° 0.2 mm 6 mps 725 mmHg 74%
    14:00 +2°C° 0.2 mm 6 mps 725 mmHg 71%
    15:00 +2°C° 0 mm 5 mps 725 mmHg 72%
    16:00 +1°C° 0 mm 5 mps 726 mmHg 73%
    17:00 +1°C° 0 mm 4 mps 726 mmHg 75%
    18:00 0°C° 0 mm 4 mps 726 mmHg 78%
    19:00 0°C° 0 mm 4 mps 726 mmHg 81%
    20:00 +1°C° 0 mm 3 mps 727 mmHg 84%
    21:00 0°C° 0 mm 3 mps 727 mmHg 87%
    22:00 0°C° 0 mm 3 mps 727 mmHg 90%
    23:00 0°C° 0 mm 3 mps 727 mmHg 93%
    Show more